Find Starlink 36693

NORAD ID: 67742 Int'l Des: 2026-026 Owner: SPXS Country: US Constellation: starlink operational
LEOCIRCULARRETROGRADE

Live Position

Loading 3D Globe...

About Starlink 36693

Description loading...

Upcoming Passes

Passes for default location (London). Set your location on the main map for personalized predictions.

Altitude History

Loading altitude history...

Two-Line Element Set

1 67742U 26026X 26105.90818075 .00007707 00000-0 24080-3 0 9992
2 67742 97.2846 160.0452 0001392 88.4965 271.6437 15.33447299 9834
Epoch: Apr 15, 2026 • Age: 14 hours

Current Status

Altitude 477.3 km
Velocity 7.63 km/s
Sub-Earth Point -29.97°S, 143.78°E
Launch Date Feb 11, 2026
Age 0.1 years
Type internet

Technical Details

Classification Payload
Mass 575.00 kg
Dry Mass 530.00 kg
Total Mass 575.00 kg
Length 0.30 m
Diameter 4.10 m
Span 29.00 m
Shape Box + pan
Manufacturer SPXS
Bus Type Starlink V2MO
Phase Status In Orbit
Owner/State SPXS/US

Most Searched